• In Uzbekistan
  • List of Countries
  • For 7 days
  • Water Temperature
  • Satellite Maps
  • Weather Map
  • Weather Widgets
  • user-avatar
    Login

    Hourly Weather Mauritius

    Today, 19 January, Thursday

    Time Temperature Precipitation Wind Pressure Humidity
    00:00 +24°C° 0.3 mm 6 mps 725 mmHg 80%
    01:00 +24°C° 0.3 mm 6 mps 725 mmHg 80%
    02:00 +24°C° 0.1 mm 6 mps 725 mmHg 80%
    03:00 +25°C° 0.1 mm 5 mps 725 mmHg 80%
    04:00 +23°C° 0 mm 6 mps 725 mmHg 80%
    05:00 +24°C° 0 mm 6 mps 725 mmHg 79%
    06:00 +24°C° 0 mm 6 mps 725 mmHg 78%
    07:00 +24°C° 0 mm 6 mps 725 mmHg 77%
    08:00 +26°C° 0 mm 6 mps 725 mmHg 74%
    09:00 +27°C° 0 mm 6 mps 725 mmHg 71%
    10:00 +27°C° 0 mm 7 mps 725 mmHg 67%
    11:00 +28°C° 0 mm 7 mps 725 mmHg 66%
    12:00 +28°C° 0 mm 7 mps 724 mmHg 64%
    13:00 +29°C° 0 mm 7 mps 724 mmHg 62%
    14:00 +29°C° 0 mm 7 mps 724 mmHg 63%
    15:00 +28°C° 0 mm 7 mps 724 mmHg 64%
    16:00 +28°C° 0 mm 7 mps 723 mmHg 65%
    17:00 +27°C° 0.1 mm 7 mps 723 mmHg 69%
    18:00 +26°C° 0.1 mm 7 mps 723 mmHg 72%
    19:00 +26°C° 0.1 mm 7 mps 723 mmHg 76%
    20:00 +26°C° 0.6 mm 7 mps 724 mmHg 77%
    21:00 +24°C° 0.6 mm 7 mps 724 mmHg 77%
    22:00 +24°C° 0.6 mm 7 mps 724 mmHg 78%
    23:00 +24°C° 0.8 mm 7 mps 724 mmHg 78%

    Tomorrow, 20 January, Friday

    Time Temperature Precipitation Wind Pressure Humidity
    00:00 +24°C° 0.8 mm 7 mps 724 mmHg 78%
    01:00 +24°C° 0.8 mm 7 mps 724 mmHg 79%
    02:00 +24°C° 1.1 mm 7 mps 723 mmHg 79%
    03:00 +24°C° 1.1 mm 7 mps 723 mmHg 80%
    04:00 +24°C° 1.1 mm 7 mps 723 mmHg 80%
    05:00 +24°C° 0.8 mm 7 mps 723 mmHg 79%
    06:00 +24°C° 0.8 mm 8 mps 724 mmHg 78%
    07:00 +24°C° 0.8 mm 8 mps 724 mmHg 76%
    08:00 +26°C° 0.6 mm 8 mps 724 mmHg 72%
    09:00 +27°C° 0.6 mm 8 mps 724 mmHg 68%
    10:00 +28°C° 0.6 mm 7 mps 724 mmHg 64%
    11:00 +28°C° 0.2 mm 7 mps 724 mmHg 62%
    12:00 +29°C° 0.2 mm 7 mps 724 mmHg 60%
    13:00 +29°C° 0.2 mm 7 mps 724 mmHg 59%
    14:00 +29°C° 0 mm 7 mps 723 mmHg 60%
    15:00 +29°C° 0 mm 7 mps 723 mmHg 61%
    16:00 +28°C° 0 mm 6 mps 723 mmHg 62%
    17:00 +27°C° 0 mm 7 mps 723 mmHg 66%
    18:00 +27°C° 0 mm 7 mps 723 mmHg 70%
    19:00 +26°C° 0 mm 7 mps 723 mmHg 75%
    20:00 +26°C° 0 mm 7 mps 724 mmHg 76%
    21:00 +24°C° 0 mm 7 mps 724 mmHg 77%
    22:00 +24°C° 0 mm 7 mps 724 mmHg 78%
    23:00 +24°C° 0 mm 7 mps 724 mmHg 78%

    Day after tomorrow, 21 January, Saturday

    Time Temperature Precipitation Wind Pressure Humidity
    00:00 +24°C° 0 mm 6 mps 724 mmHg 79%
    01:00 +24°C° 0 mm 6 mps 724 mmHg 79%
    02:00 +24°C° 0 mm 6 mps 724 mmHg 79%
    03:00 +24°C° 0 mm 6 mps 723 mmHg 79%
    04:00 +23°C° 0 mm 6 mps 723 mmHg 79%
    05:00 +24°C° 0.1 mm 6 mps 724 mmHg 77%
    06:00 +24°C° 0.1 mm 6 mps 724 mmHg 75%
    07:00 +24°C° 0.1 mm 6 mps 724 mmHg 73%
    08:00 +26°C° 0.1 mm 6 mps 725 mmHg 70%
    09:00 +27°C° 0.1 mm 6 mps 725 mmHg 66%
    10:00 +28°C° 0.1 mm 6 mps 725 mmHg 63%
    11:00 +28°C° 0 mm 6 mps 725 mmHg 61%
    12:00 +28°C° 0 mm 6 mps 724 mmHg 59%
    13:00 +29°C° 0 mm 6 mps 724 mmHg 57%
    14:00 +28°C° 0 mm 6 mps 724 mmHg 58%
    15:00 +28°C° 0 mm 6 mps 724 mmHg 59%
    16:00 +28°C° 0 mm 6 mps 723 mmHg 60%
    17:00 +27°C° 0 mm 6 mps 724 mmHg 65%
    18:00 +26°C° 0 mm 6 mps 724 mmHg 69%
    19:00 +26°C° 0 mm 6 mps 724 mmHg 73%
    20:00 +26°C° 0 mm 6 mps 724 mmHg 74%
    21:00 +24°C° 0 mm 6 mps 725 mmHg 75%
    22:00 +24°C° 0 mm 6 mps 725 mmHg 77%
    23:00 +24°C° 0 mm 6 mps 725 mmHg 77%

    22 January, Sunday

    Time Temperature Precipitation Wind Pressure Humidity
    00:00 +24°C° 0 mm 6 mps 724 mmHg 77%
    01:00 +24°C° 0 mm 6 mps 724 mmHg 77%
    02:00 +24°C° 0.1 mm 6 mps 724 mmHg 78%
    03:00 +24°C° 0.1 mm 6 mps 724 mmHg 79%
    04:00 +24°C° 0.1 mm 6 mps 724 mmHg 80%
    05:00 +24°C° 0.4 mm 7 mps 724 mmHg 79%
    06:00 +24°C° 0.4 mm 7 mps 724 mmHg 78%
    07:00 +26°C° 0.4 mm 8 mps 725 mmHg 77%
    08:00 +26°C° 0.1 mm 8 mps 725 mmHg 73%
    09:00 +27°C° 0.1 mm 8 mps 725 mmHg 69%
    10:00 +28°C° 0.1 mm 8 mps 725 mmHg 65%
    11:00 +28°C° 0.3 mm 8 mps 725 mmHg 65%
    12:00 +28°C° 0.3 mm 8 mps 725 mmHg 64%
    13:00 +28°C° 0.3 mm 8 mps 724 mmHg 64%
    14:00 +28°C° 0.3 mm 8 mps 724 mmHg 66%
    15:00 +28°C° 0.3 mm 8 mps 724 mmHg 67%
    16:00 +27°C° 0.3 mm 8 mps 724 mmHg 69%
    17:00 +27°C° 0.4 mm 8 mps 724 mmHg 71%
    18:00 +26°C° 0.4 mm 8 mps 724 mmHg 74%
    19:00 +24°C° 0.4 mm 8 mps 724 mmHg 77%
    20:00 +24°C° 0.2 mm 8 mps 725 mmHg 77%
    21:00 +24°C° 0.2 mm 8 mps 725 mmHg 78%
    22:00 +24°C° 0.2 mm 8 mps 725 mmHg 78%
    23:00 +24°C° 0.1 mm 8 mps 725 mmHg 78%

    23 January, Monday

    Time Temperature Precipitation Wind Pressure Humidity
    00:00 +24°C° 0.1 mm 8 mps 725 mmHg 78%
    01:00 +24°C° 0.1 mm 7 mps 724 mmHg 78%
    02:00 +24°C° 0 mm 8 mps 724 mmHg 78%
    03:00 +24°C° 0 mm 8 mps 724 mmHg 79%
    04:00 +24°C° 0 mm 8 mps 723 mmHg 79%
    05:00 +24°C° 0.1 mm 8 mps 724 mmHg 78%
    06:00 +24°C° 0.1 mm 8 mps 724 mmHg 77%
    07:00 +24°C° 0.1 mm 8 mps 724 mmHg 76%
    08:00 +26°C° 0.1 mm 7 mps 725 mmHg 72%
    09:00 +27°C° 0.1 mm 7 mps 725 mmHg 69%
    10:00 +28°C° 0.1 mm 7 mps 725 mmHg 65%
    11:00 +28°C° 0 mm 7 mps 725 mmHg 63%
    12:00 +28°C° 0 mm 7 mps 724 mmHg 61%
    13:00 +28°C° 0 mm 7 mps 724 mmHg 59%
    14:00 +28°C° 0 mm 7 mps 724 mmHg 59%
    15:00 +28°C° 0 mm 7 mps 723 mmHg 59%
    16:00 +28°C° 0 mm 7 mps 723 mmHg 60%
    17:00 +27°C° 0 mm 7 mps 723 mmHg 65%
    18:00 +26°C° 0 mm 7 mps 723 mmHg 70%
    19:00 +24°C° 0 mm 7 mps 724 mmHg 75%
    20:00 +24°C° 0 mm 7 mps 724 mmHg 75%
    21:00 +24°C° 0 mm 7 mps 724 mmHg 76%
    22:00 +24°C° 0 mm 7 mps 724 mmHg 77%
    23:00 +24°C° 0 mm 7 mps 724 mmHg 77%

    24 January, Tuesday

    Time Temperature Precipitation Wind Pressure Humidity
    00:00 +24°C° 0 mm 7 mps 723 mmHg 77%
    01:00 +24°C° 0 mm 7 mps 723 mmHg 77%
    02:00 +24°C° 0 mm 7 mps 723 mmHg 77%
    03:00 +24°C° 0 mm 7 mps 722 mmHg 78%
    04:00 +24°C° 0 mm 7 mps 722 mmHg 79%
    05:00 +24°C° 0 mm 7 mps 722 mmHg 78%
    06:00 +24°C° 0 mm 7 mps 723 mmHg 78%
    07:00 +24°C° 0 mm 7 mps 723 mmHg 77%
    08:00 +26°C° 0 mm 7 mps 723 mmHg 73%
    09:00 +27°C° 0 mm 7 mps 723 mmHg 68%
    10:00 +28°C° 0 mm 7 mps 723 mmHg 64%
    11:00 +28°C° 0 mm 7 mps 723 mmHg 63%
    12:00 +29°C° 0 mm 7 mps 722 mmHg 62%
    13:00 +29°C° 0 mm 7 mps 722 mmHg 62%
    14:00 +29°C° 0 mm 7 mps 722 mmHg 62%
    15:00 +28°C° 0 mm 7 mps 721 mmHg 63%
    16:00 +28°C° 0 mm 7 mps 721 mmHg 64%
    17:00 +27°C° 0 mm 8 mps 721 mmHg 68%
    18:00 +27°C° 0 mm 8 mps 722 mmHg 72%
    19:00 +26°C° 0 mm 8 mps 722 mmHg 76%
    20:00 +26°C° 0 mm 8 mps 722 mmHg 77%
    21:00 +26°C° 0 mm 8 mps 723 mmHg 78%
    22:00 +24°C° 0 mm 8 mps 723 mmHg 79%
    23:00 +24°C° 0.1 mm 8 mps 723 mmHg 79%
    Show more